TimeEDT,TemperatureF,Dew PointF,Humidity,Sea Level PressureIn,VisibilityMPH,Wind Direction,Wind SpeedMPH,Gust SpeedMPH,PrecipitationIn,Events,Conditions,WindDirDegrees,DateUTC
12:49 AM,57.2,57.2,100,30.03,2.5,Calm,Calm,-,N/A,,Overcast,0,2012-10-03 04:49:00
12:53 AM,57.9,57.9,100,30.04,2.5,Calm,Calm,-,N/A,,Overcast,0,2012-10-03 04:53:00
1:04 AM,57.2,57.2,100,30.04,3.0,Calm,Calm,-,N/A,,Overcast,0,2012-10-03 05:04:00
1:19 AM,57.2,57.2,100,30.04,2.5,North,3.5,-,N/A,,Overcast,360,2012-10-03 05:19:00
1:28 AM,57.2,57.2,100,30.03,2.5,North,3.5,-,N/A,,Overcast,10,2012-10-03 05:28:00
1:53 AM,57.9,57.9,100,30.04,2.5,Calm,Calm,-,N/A,,Overcast,0,2012-10-03 05:53:00
2:21 AM,57.2,57.2,100,30.03,2.5,Calm,Calm,-,N/A,,Overcast,0,2012-10-03 06:21:00
2:33 AM,57.2,57.2,100,30.04,3.0,Calm,Calm,-,N/A,,Overcast,0,2012-10-03 06:33:00
2:53 AM,57.9,57.9,100,30.04,2.5,Calm,Calm,-,N/A,,Overcast,0,2012-10-03 06:53:00
3:06 AM,57.2,57.2,100,30.03,2.5,Calm,Calm,-,N/A,,Overcast,0,2012-10-03 07:06:00
3:35 AM,57.2,57.2,100,30.03,3.0,Calm,Calm,-,N/A,,Overcast,0,2012-10-03 07:35:00
3:53 AM,57.9,57.9,100,30.04,2.5,Calm,Calm,-,N/A,,Overcast,0,2012-10-03 07:53:00
4:14 AM,57.2,57.2,100,30.03,3.0,NNE,4.6,-,0.02,Rain,Light Rain,20,2012-10-03 08:14:00
4:28 AM,57.2,57.2,100,30.02,3.0,ENE,3.5,-,0.02,,Overcast,70,2012-10-03 08:28:00
4:48 AM,57.2,57.2,100,30.03,3.0,Calm,Calm,-,0.02,,Overcast,0,2012-10-03 08:48:00
4:53 AM,57.9,57.9,100,30.04,3.0,Calm,Calm,-,0.02,Rain,Light Rain,0,2012-10-03 08:53:00
5:02 AM,57.2,57.2,100,30.03,3.0,Calm,Calm,-,0.00,Rain,Light Rain,0,2012-10-03 09:02:00
5:34 AM,59.0,59.0,100,30.03,4.0,Calm,Calm,-,0.01,Rain,Light Rain,0,2012-10-03 09:34:00
5:46 AM,59.0,57.2,94,30.03,3.0,Calm,Calm,-,0.02,Rain,Light Rain,0,2012-10-03 09:46:00
5:53 AM,59.0,57.9,96,30.04,3.0,Calm,Calm,-,0.02,Rain,Light Rain,0,2012-10-03 09:53:00
6:05 AM,59.0,57.2,94,30.04,4.0,Calm,Calm,-,0.00,Rain,Light Rain,0,2012-10-03 10:05:00
6:53 AM,57.9,57.9,100,30.05,2.5,NNW,3.5,-,0.01,Rain,Light Rain,330,2012-10-03 10:53:00
7:02 AM,57.2,57.2,100,30.04,3.0,North,3.5,-,0.00,Rain,Light Rain,350,2012-10-03 11:02:00
7:10 AM,59.0,57.2,94,30.04,2.0,NNW,3.5,-,0.01,Rain,Light Rain,340,2012-10-03 11:10:00
7:17 AM,59.0,57.2,94,30.05,1.8,Calm,Calm,-,N/A,Rain,Light Rain,0,2012-10-03 11:17:00
7:26 AM,59.0,59.0,100,30.05,1.5,Calm,Calm,-,N/A,Rain,Light Rain,0,2012-10-03 11:26:00
7:33 AM,59.0,59.0,100,30.05,1.2,Calm,Calm,-,0.04,Rain,Rain,0,2012-10-03 11:33:00
7:44 AM,59.0,59.0,100,30.05,2.0,Calm,Calm,-,0.04,Rain,Light Rain,0,2012-10-03 11:44:00
7:50 AM,59.0,59.0,100,30.05,3.0,Calm,Calm,-,0.04,Rain,Light Rain,0,2012-10-03 11:50:00
7:53 AM,59.0,59.0,100,30.06,3.0,Calm,Calm,-,0.05,,Overcast,0,2012-10-03 11:53:00
8:00 AM,59.0,59.0,100,30.06,4.0,Calm,Calm,-,N/A,,Overcast,0,2012-10-03 12:00:00
8:08 AM,59.0,59.0,100,30.06,5.0,Calm,Calm,-,0.00,Rain,Light Rain,0,2012-10-03 12:08:00
8:22 AM,59.0,59.0,100,30.06,1.8,Calm,Calm,-,0.00,Rain,Light Rain,0,2012-10-03 12:22:00
8:46 AM,59.0,59.0,100,30.07,2.0,Calm,Calm,-,0.01,,Overcast,0,2012-10-03 12:46:00
8:53 AM,59.0,59.0,100,30.07,2.5,Calm,Calm,-,0.01,,Overcast,0,2012-10-03 12:53:00
9:02 AM,59.0,59.0,100,30.06,3.0,NNE,3.5,-,N/A,,Overcast,20,2012-10-03 13:02:00
9:13 AM,59.0,59.0,100,30.06,3.0,Calm,Calm,-,N/A,,Overcast,0,2012-10-03 13:13:00
9:31 AM,60.8,59.0,94,30.06,2.5,NE,3.5,-,N/A,,Overcast,40,2012-10-03 13:31:00
9:53 AM,60.1,59.0,96,30.07,1.5,East,3.5,-,N/A,,Overcast,80,2012-10-03 13:53:00
10:53 AM,60.1,60.1,100,30.08,1.2,Calm,Calm,-,0.01,Rain,Light Rain,0,2012-10-03 14:53:00
11:53 AM,61.0,60.1,97,30.08,2.5,Calm,Calm,-,0.02,,Overcast,0,2012-10-03 15:53:00
12:31 PM,60.8,60.8,100,30.07,6.0,Calm,Calm,-,0.00,,Overcast,0,2012-10-03 16:31:00
12:53 PM,62.1,61.0,96,30.07,10.0,Calm,Calm,-,0.00,,Overcast,0,2012-10-03 16:53:00
1:08 PM,62.6,60.8,94,30.06,10.0,Calm,Calm,-,N/A,,Overcast,0,2012-10-03 17:08:00
1:53 PM,62.1,62.1,100,30.06,2.5,NE,3.5,-,N/A,,Overcast,40,2012-10-03 17:53:00
2:01 PM,62.6,60.8,94,30.05,1.5,NNE,3.5,-,N/A,,Overcast,30,2012-10-03 18:01:00
2:13 PM,62.6,62.6,100,30.06,2.5,Calm,Calm,-,N/A,,Overcast,0,2012-10-03 18:13:00
2:25 PM,62.6,62.6,100,30.05,3.0,Calm,Calm,-,N/A,,Overcast,0,2012-10-03 18:25:00
2:35 PM,62.6,62.6,100,30.06,2.0,Calm,Calm,-,N/A,,Overcast,0,2012-10-03 18:35:00
2:53 PM,62.1,62.1,100,30.06,2.5,ENE,3.5,-,N/A,,Overcast,60,2012-10-03 18:53:00
3:12 PM,62.6,62.6,100,30.06,4.0,Calm,Calm,-,N/A,,Overcast,0,2012-10-03 19:12:00
3:53 PM,63.0,62.1,97,30.06,4.0,Calm,Calm,-,N/A,,Overcast,0,2012-10-03 19:53:00
4:05 PM,62.6,62.6,100,30.06,3.0,Calm,Calm,-,N/A,,Overcast,0,2012-10-03 20:05:00
4:53 PM,63.0,63.0,100,30.07,9.0,ENE,3.5,-,N/A,,Overcast,60,2012-10-03 20:53:00
5:53 PM,63.0,63.0,100,30.08,8.0,Calm,Calm,-,N/A,,Overcast,0,2012-10-03 21:53:00
6:07 PM,62.6,62.6,100,30.08,8.0,NE,3.5,-,N/A,,Overcast,50,2012-10-03 22:07:00
6:53 PM,63.0,63.0,100,30.09,7.0,Calm,Calm,-,N/A,,Overcast,0,2012-10-03 22:53:00
7:20 PM,62.6,62.6,100,30.09,8.0,Calm,Calm,-,N/A,,Overcast,0,2012-10-03 23:20:00
7:51 PM,62.6,62.6,100,30.10,7.0,Calm,Calm,-,N/A,,Overcast,0,2012-10-03 23:51:00
7:53 PM,63.0,63.0,100,30.10,7.0,Calm,Calm,-,N/A,,Overcast,0,2012-10-03 23:53:00
8:12 PM,62.6,62.6,100,30.10,8.0,North,3.5,-,N/A,,Overcast,350,2012-10-04 00:12:00
8:19 PM,62.6,62.6,100,30.10,8.0,Calm,Calm,-,N/A,,Overcast,0,2012-10-04 00:19:00
8:33 PM,62.6,62.6,100,30.10,8.0,Calm,Calm,-,N/A,,Overcast,0,2012-10-04 00:33:00
8:50 PM,62.6,62.6,100,30.09,7.0,Calm,Calm,-,N/A,,Overcast,0,2012-10-04 00:50:00
8:53 PM,63.0,63.0,100,30.10,7.0,Calm,Calm,-,N/A,,Overcast,0,2012-10-04 00:53:00
9:53 PM,63.0,62.1,97,30.12,7.0,Calm,Calm,-,N/A,,Overcast,0,2012-10-04 01:53:00
10:32 PM,62.6,62.6,100,30.12,6.0,Calm,Calm,-,N/A,,Overcast,0,2012-10-04 02:32:00
10:53 PM,62.1,62.1,100,30.12,5.0,Calm,Calm,-,N/A,,Overcast,0,2012-10-04 02:53:00
11:26 PM,62.6,62.6,100,30.11,6.0,Calm,Calm,-,N/A,,Overcast,0,2012-10-04 03:26:00
11:36 PM,62.6,62.6,100,30.11,5.0,Calm,Calm,-,N/A,,Overcast,0,2012-10-04 03:36:00
11:53 PM,63.0,63.0,100,30.12,5.0,Calm,Calm,-,N/A,,Overcast,0,2012-10-04 03:53:00